Regional Weather Roundup
Issued by NWS

Home | Current Version | Previous Version | Text Only | Print | Product List | Glossary On
Versions: 1 2 3 4 5 6 7 8 9 10 11 12 13 14 15 16 17 18 19 20 21 22 23 24 25 26 27 28 29 30 31 32 33 34 35 36 37 38 39 40 41 42 43 44 45 46 47 48 49 50
000
ASUS45 KCYS 241510
RWRWY

WYOMING REGIONAL WEATHER ROUNDUP
NATIONAL WEATHER SERVICE CHEYENNE WY
800 AM MST MON NOV 24 2014

NOTE:  "FAIR" INDICATES FEW OR NO CLOUDS BELOW 12,000 FEET
WITH NO SIGNIFICANT WEATHER AND/OR OBSTRUCTIONS TO VISIBILITY.

WYZ001-241600-
YELLOWSTONE NATIONAL PARK

CITY           SKY/WX    TMP DP  RH WIND       PRES   REMARKS
LK YELLOWSTONE   N/A     16  11  80 W9        30.06R WCI   4
W YELLOWSTONE  NOT AVBL

$$
WYZ002>013-054>058-071-098>099-241600-
NORTHERN WYOMING

CITY           SKY/WX    TMP DP  RH WIND       PRES   REMARKS
JACKSON        CLOUDY    27  14  59 W9        30.10R WCI  17
CODY           MOCLDY    32  14  47 NW8       29.99R WCI  25
GREYBULL       CLOUDY    33  24  69 NW18G31   29.99R WCI  22
WORLAND        CLOUDY    26  22  84 SW7       30.01R WCI  18
SHERIDAN       LGT SNOW  32  28  85 NW20G32   29.96R FOG     WCI  20
BUFFALO        LGT SNOW  30  23  75 NW25G40   29.90R WCI  16
GILLETTE       NOT AVBL
HULETT           N/A     32  30  93 MISG        N/A
NEWCASTLE      FLURRIES  28  28 100 NW9       29.83R WCI  20

$$
WYZ014>020-022>026-101>103-241600-
CENTRAL WYOMING

CITY           SKY/WX    TMP DP  RH WIND       PRES   REMARKS
BIG PINEY      PTCLDY    34   9  35 N13       30.06R WCI  25
PINEDALE       PTSUNNY   19  18  93 NW15      30.06R WCI   5
DUBOIS         FAIR      21  10  63 W32G38    29.98R WCI   2
LANDER         NOT AVBL
RIVERTON       MOCLDY    25  13  60 NW18      29.99R WCI  11
CASPER         MOCLDY    26  19  74 W14       29.92R WCI  14
DOUGLAS        CLOUDY   N/A N/A N/A NW20G26   29.89R

$$
WYZ021-027>030-104>119-241600-
SOUTHERN WYOMING

CITY           SKY/WX    TMP DP  RH WIND       PRES   REMARKS
EVANSTON       CLOUDY    22  17  81 NW12      30.16R WCI  10
FORT BRIDGER   PTSUNNY   23  21  91 W21G28    30.14R WCI   8
ROCK SPRINGS   MOCLDY    22  19  89 W17       30.05R WCI   8
DIXON          CLOUDY    27  19  73 W6        30.05R WCI  20
RAWLINS        PTCLDY    21  15  78 W22G35    29.95R WCI   5
SARATOGA       PTSUNNY   23  18  80 W16G26    29.96R WCI  10
LARAMIE        CLOUDY    23  12  62 W17       29.87R WCI   9
CHEYENNE       CLOUDY    30  13  49 NW16G33   29.86R WCI  19
TORRINGTON     PTCLDY    26  15  63 N3        29.86R
PINE BLUFFS    FAIR      32  18  55 NW17      29.87R WCI  21

$$



USA.gov is the U.S. government's official web portal to all federal, state and local government web resources and services.